Location: Harburg
(48.7667°N, 10.6667°E)
Time: 05:30:07
(UTC+00:00)

SJ-11-01 - Pass Details

Date: 18 September 2020
Orbit: 684 x 701 km, 98.0° (Epoch: 27 October)

Event Time Altitude Azimuth Distance (km) Brightness Sun altitude
Rises 18:03:33 0° 160° (SSE) 3,067 7.3 -7.5°
Reaches altitude 10° 18:05:47 10° 160° (SSE) 2,152 6.5 -7.8°
Maximum altitude 18:10:30 79° 75° (ENE) 715 4.3 -8.6°
Drops below altitude 10° 18:15:13 10° 349° (NNW) 2,158 7.2 -9.3°
Sets 18:17:29 0° 348° (NNW) 3,076 8.0 -9.7°
